Flag for Trinidad and Tobago Weather past 2 weeks in Scarborough, Trinidad and Tobago

Now
79 °F

Passing clouds.


Feels Like: 82 °F
Forecast: 79 / 84 °F
Wind: 8 mph from Northeast

Location: Crown Pt./ Scarborou

Current Time: Jul 4, 2015 at 11:47:24 PM

Latest Report: Jul 4, 2015 at 10:00 PM


Visibility: N/A

Pressure: 29.95 "Hg

Humidity: 79%

Dew point: 72 °F

Location of ScarboroughLocation

Historic Weather in Scarborough — Graph

°F

Scarborough temperature yesterday

Maximum temperature yesterday: 86 °F (at 12:00 PM)
Minimum temperature yesterday: 77 °F (at 5:00 AM)
Average temperature yesterday: 81 °F

Past Weeks' High & Low Weather Summary

 TemperatureHumidityPressure
High88 °F (Jun 20, 11:00 AM)100% (Jun 30, 8:00 AM)30.24 "Hg (Jun 30, 8:00 AM)
Low75 °F (Jun 21, 3:00 AM)52% (Jun 20, 11:00 AM)29.89 "Hg (Jul 4, 4:00 PM)
Average81 °F76%30.01 "Hg
* Reported Jun 20 3:00 AM — Jul 4 10:00 PM, Scarborough, Weather by CustomWeather, © 2015

Note: Actual official high and low records may vary slightly from our data, if they occured in-between our weather recording intervals... More about our weather records

Advertising

Scarborough weather history for previous 24 hours

 ConditionsComfort  
Time TempWeatherWind HumidityBarometerVisibility
10:00 PM
Sat, Jul 4
79 °FPassing clouds.8 mph79%29.95 "HgN/A
9:00 PM79 °FPassing clouds.6 mph84%29.98 "HgN/A
8:00 PM81 °FPassing clouds.7 mph84%29.95 "HgN/A
7:00 PM77 °FScattered showers. Passing clouds.6 mph89%29.92 "HgN/A
6:00 PM81 °FScattered showers. Partly sunny.14 mph74%29.92 "Hg6 mi
5:00 PM81 °FLight rain. Broken clouds.20 mph74%29.92 "Hg5 mi
4:00 PM84 °FScattered showers. Scattered clouds.9 mph62%29.89 "HgN/A
3:00 PM88 °FScattered clouds.17 mph55%29.92 "HgN/A
2:00 PM88 °FPassing clouds.21 mph55%29.92 "HgN/A
1:00 PM88 °FPassing clouds.22 mph59%29.95 "HgN/A
12:00 PM88 °FScattered clouds.21 mph59%29.98 "HgN/A
11:00 AM86 °FPassing clouds.23 mph66%29.98 "HgN/A
10:00 AM86 °FPassing clouds.16 mph62%29.98 "HgN/A
9:00 AM84 °FPassing clouds.18 mph70%29.98 "HgN/A
8:00 AM82 °FPassing clouds.15 mph79%29.98 "HgN/A
7:00 AM79 °FPassing clouds.7 mph79%29.95 "HgN/A
6:00 AM79 °FPassing clouds.9 mph79%29.95 "HgN/A
5:00 AM79 °FPassing clouds.9 mph79%29.92 "HgN/A
4:00 AM79 °FPassing clouds.6 mph79%29.92 "HgN/A
3:00 AM79 °FScattered showers. Passing clouds.7 mph84%29.92 "HgN/A
2:00 AM79 °FSprinkles. Partly cloudy.5 mph84%29.95 "HgN/A
1:00 AM79 °FPassing clouds.3 mph84%29.95 "HgN/A
12:00 AM79 °FPassing clouds.7 mph89%29.98 "HgN/A
11:00 PM
Fri, Jul 3
79 °FPassing clouds.6 mph84%30.01 "HgN/A
Weather by CustomWeather, © 2015

See weather overviewHow to use our weather pages